This is the latest recevied weather packets stored in our database for station/object KC1TEM-13. If no packets are shown the sender has not sent any weather packets the latest 10 day(s).
| Time | Temp. | Humidity | Pressure | Rain* | Wind** | Luminosity | Snow |
|---|---|---|---|---|---|---|---|
| 1778100051 | 16.67° C | 90% | 1006.9 hPa | 1.78 mm | - | 70 W/m² | - |
| 1778099750 | 16.67° C | 90% | 1007 hPa | 2.29 mm | - | 68 W/m² | - |
| 1778099446 | 16.67° C | 89% | 1006.9 hPa | 3.05 mm | - | 78 W/m² | - |
| 1778099144 | 16.67° C | 89% | 1006.7 hPa | 2.29 mm | - | 52 W/m² | - |
| 1778098840 | 16.67° C | 88% | 1006.9 hPa | 1.78 mm | - | 34 W/m² | - |
| 1778098538 | 16.67° C | 88% | 1006.7 hPa | 3.05 mm | - | 57 W/m² | - |
| 1778098234 | 17.22° C | 86% | 1006.8 hPa | 2.29 mm | - | 73 W/m² | - |
| 1778097930 | 17.22° C | 85% | 1006.7 hPa | 0.51 mm | - | 47 W/m² | - |
| 1778097627 | 17.22° C | 85% | 1006.8 hPa | 1.27 mm | - | 27 W/m² | - |
| 1778097324 | 17.22° C | 84% | 1006.6 hPa | 1.27 mm | - | 52 W/m² | - |
| 1778097020 | 17.78° C | 83% | 1006.7 hPa | 1.27 mm | - | 32 W/m² | - |
| 1778096718 | 17.78° C | 81% | 1006.9 hPa | 1.27 mm | - | 60 W/m² | - |
| 1778096414 | 17.78° C | 81% | 1006.7 hPa | 1.27 mm | - | 59 W/m² | - |
| 1778096111 | 18.33° C | 80% | 1006.9 hPa | 1.27 mm | - | 62 W/m² | - |
| 1778095808 | 18.33° C | 76% | 1006.6 hPa | 1.27 mm | - | 90 W/m² | - |
| 1778095505 | 18.89° C | 74% | 1006.9 hPa | 1.78 mm | - | 79 W/m² | - |
| 1778095201 | 19.44° C | 71% | 1007 hPa | 0.51 mm | - | 68 W/m² | - |
| 1778094898 | 19.44° C | 69% | 1006.9 hPa | 0.51 mm | - | 79 W/m² | - |
| 1778094595 | 20° C | 66% | 1006.9 hPa | 0.51 mm | - | 63 W/m² | - |
| 1778094292 | 20° C | 66% | 1007.1 hPa | 0.51 mm | - | 65 W/m² | - |
| 1778093988 | 20.56° C | 65% | 1006.9 hPa | 0 mm | - | 43 W/m² | - |
| 1778093686 | 20.56° C | 62% | 1006.8 hPa | 0.51 mm | - | 88 W/m² | - |
| 1778093382 | 20.56° C | 62% | 1006.7 hPa | 0 mm | - | 110 W/m² | - |
| 1778093079 | 20.56° C | 62% | 1006.9 hPa | 0 mm | - | 90 W/m² | - |
| 1778092776 | 20.56° C | 60% | 1006.9 hPa | 0 mm | - | 85 W/m² | - |
* Rain latest hour (hover to see other rain measurements)
** Current wind speed in m/s (hover to see current wind gust speed)